Regional Weather Roundup
Issued by NWS

Home | Current Version | Previous Version | Text Only | Print | Product List | Glossary Off
Versions: 1 2 3 4 5 6 7 8 9 10 11 12 13 14 15 16 17 18 19 20 21 22 23 24 25 26 27 28 29 30 31 32 33 34 35 36 37 38 39 40 41 42 43 44 45 46 47 48 49 50

000
ASUS43 KMPX 041410
RWRMN
WEATHER ROUNDUP FOR MINNESOTA
NATIONAL WEATHER SERVICE TWIN CITIES/CHANHASSEN MN
900 AM CDT WED MAY 04 2016


NOTE: "FAIR" INDICATES FEW OR NO CLOUDS BELOW 12,000 FEET WITH NO
SIGNIFICANT WEATHER AND/OR OBSTRUCTIONS TO VISIBILITY. N/A MEANS
CURRENT SKY AND/OR WEATHER CONDITIONS ARE NOT AVAILABLE.

MNZ060>063-068>070-041500-
   Twin Cities Metro

CITY           SKY/WX    TMP DP  RH WIND       PRES   REMARKS
TWIN CITIES    SUNNY     53  33  46 N9        29.99R
ST PAUL        SUNNY     52  34  50 N9        30.00R
CRYSTAL        SUNNY     55  34  45 N13       29.99R
BLAINE         SUNNY     54  36  50 NW13      29.99
EDEN PRAIRIE   SUNNY     54  33  45 N8        29.99R
SOUTH ST PAUL  SUNNY     53  33  46 N10G16    29.98R
LAKE ELMO      FAIR      52  36  54 N12       29.99R
$$
MNZ001>005-007-008-013>017-022>024-027-028-041500-
   Northwest Minnesota

CITY           SKY/WX    TMP DP  RH WIND       PRES   REMARKS
BEMIDJI        SUNNY     48  33  56 N8        30.06R
HALLOCK        SUNNY     48  37  66 NW3       30.11S
ROSEAU         SUNNY     48  37  66 N5        30.09S
WARROAD        SUNNY     46  36  66 CALM      30.09S
THIEF RVR FALL SUNNY     50  34  53 NE8       30.11R
CROOKSTON      SUNNY     46  36  66 NW5       30.12R
FOSSTON        SUNNY     48  39  71 NE7       30.09R
DETROIT LAKES  SUNNY     46  37  71 NW3       30.08R
MOORHEAD       SUNNY     48  36  61 N9        30.10S
PARK RAPIDS    SUNNY     50  34  54 N9        30.05R
MAHNOMEN       FAIR      48  36  62 NE6       30.08R
$$
MNZ006-009>011-018-025>026-041500-
   North Central Minnesota

CITY           SKY/WX    TMP DP  RH WIND       PRES   REMARKS
BAUDETTE       SUNNY     48  30  49 N9        30.07R
FLAG ISLAND    SUNNY     43  28  56 N9        30.08R
INTL FALLS     SUNNY     45  27  49 N12       30.04R
WASKISH        SUNNY     46  34  61 N8        30.06S
BIG FORK       SUNNY     46  32  57 N8        30.03R
LONGVILLE      SUNNY     48  36  61 N7        30.03R
GRAND RAPIDS   SUNNY     46  30  53 N15G22    30.03R
CRANE LAKE     SUNNY     43  30  61 N7        30.03R
ORR            SUNNY     45  27  49 NW5       29.99R
COOK           SUNNY     45  28  53 N6        30.00R
WALKER         FAIR      47  32  56 NE8       30.05R
$$
MNZ012-019>021-037-041500-
   Northeast Minnesota

CITY           SKY/WX    TMP DP  RH WIND       PRES   REMARKS
DULUTH         SUNNY     48  32  53 N15G23    29.96R
ELY            SUNNY     43  27  52 N8        29.97R
HIBBING        SUNNY     45  33  63 N15       29.99R
EVELETH        SUNNY     45  28  53 N12G20    29.99R
DULUTH HARBOR  SUNNY     48  36  61 NE3       29.98R
TWO HARBORS    SUNNY     52  34  50 NW8       29.93R
SILVER BAY     SUNNY     48  21  34 N9G17     29.92S
GRAND MARAIS     N/A     46  27  47 VRB6G17   29.95R
G MARAIS ARPRT MOSUNNY   37  25  60 NW14G22   29.92S
$$
MNZ029>031-032-039>041-046>048-054>057-064-041500-
   West Central Minnesota

CITY           SKY/WX    TMP DP  RH WIND       PRES   REMARKS
FERGUS FALLS   SUNNY     52  39  62 NW3       30.06R
WHEATON        SUNNY     52  39  62 NW6       30.11R
MORRIS         SUNNY     52  37  58 NW7       30.06R
ALEXANDRIA     SUNNY     53  35  50 NW7       30.06R
ELBOW LAKE     FAIR      50  40  67 W7        30.07R
WADENA         SUNNY     50  36  57 N9        30.05R
GLENWOOD       SUNNY     54  34  47 NW9       30.06R
APPLETON       SUNNY     54  37  54 NW8       30.06S
BENSON         SUNNY     54  36  50 N7        30.06R
ORTONVILLE     SUNNY     48  36  61 NW8       30.08R
MADISON        SUNNY     52  37  58 NW8       30.07S
WILLMAR        FAIR      54  37  54 NW10      30.06R
$$
MNZ033>034-036-042>043-049>051-058-059-041500-
   Central Minnesota

CITY           SKY/WX    TMP DP  RH WIND       PRES   REMARKS
ST CLOUD       SUNNY     52  34  50 N13       30.01R
SAUK CENTRE    FAIR      51  36  55 NW6       30.05R
PAYNESVILLE    SUNNY     53  33  45 NW10      30.04S
AITKIN         SUNNY     54  30  40 NW8       29.99S
PINE RIVER     SUNNY     48  37  66 N8        30.06R
BRAINERD       SUNNY     50  35  56 N13       30.02S
STAPLES        SUNNY     52  34  50 NW8       30.04R
LONG PRAIRIE   FAIR      50  34  53 NW9       30.05R
LITTLE FALLS   SUNNY     52  32  46 NW7       30.03R
LITCHFIELD     SUNNY     54  36  50 N7        30.04R
BUFFALO        SUNNY     53  35  50 NW8       30.02R
MAPLE LAKE     SUNNY     53  37  54 NW8       30.03R
HUTCHINSON     SUNNY     53  36  53 N7        30.04R
$$
MNZ037-044-045-052-053-041500-
   East Central Minnesota

CITY           SKY/WX    TMP DP  RH WIND       PRES   REMARKS
PRINCETON      SUNNY     54  36  50 NW8       30.01R
MORA           SUNNY     50  34  53 N8        30.01S
CAMBRIDGE      SUNNY     55  37  50 NW9       29.98R
RUSH CITY      MOSUNNY   50  34  53 N9        29.99S
MOOSE LAKE     SUNNY     50  34  53 N12       29.97R
HINCKLEY       CLOUDY    50  36  57 N7        29.98S
CLOQUET        SUNNY     48  32  53 NW10G18   29.98R
MCGREGOR       SUNNY     48  34  57 N10       30.01R
$$
MNZ071>073-080-081-089-090-097-098-041500-
   Southwest Minnesota

CITY           SKY/WX    TMP DP  RH WIND       PRES   REMARKS
MONTEVIDEO     SUNNY     55  39  54 N5        30.08R
GRANITE FALLS  SUNNY     53  39  59 NW6       30.08R
CANBY          SUNNY     53  40  61 W8        30.09R
MARSHALL       SUNNY     50  36  58 N10       30.07R
REDWOOD FALLS  SUNNY     55  33  43 NW8       30.04R
OLIVIA         SUNNY     54  34  47 N10       30.04R
PIPESTONE      SUNNY     52  34  50 NE8       30.06R
WINDOM         SUNNY     52  36  54 N13       30.04R
WORTHINGTON    SUNNY     50  36  58 N12       30.05R
JACKSON        SUNNY     50  34  53 N13       30.04R
TRACY          SUNNY     52  37  58 N9        30.06R
SLAYTON        SUNNY     50  35  56 N12       30.06R
$$
MNZ065>067-074>077-082>085-091>093-041500-
   South Central Minnesota

CITY           SKY/WX    TMP DP  RH WIND       PRES   REMARKS
MANKATO        SUNNY     52  34  50 N12       30.01R
NEW ULM        SUNNY     52  34  50 N5        30.03R
ST JAMES       SUNNY     48  30  49 NW9       30.04R
FAIRMONT       SUNNY     52  34  50 N10       30.02R
GLENCOE        SUNNY     53  37  55 N9        30.01S
FARIBAULT      SUNNY     54  34  47 NW9G16    29.99R
OWATONNA       SUNNY     52  34  50 N14       29.98S
WASECA         SUNNY     52  34  50 N12       30.01R
ALBERT LEA     SUNNY     52  34  50 N14       29.98R
$$
MNZ078>079-086>088-094>096-041500-
   Southeast Minnesota

CITY           SKY/WX    TMP DP  RH WIND       PRES   REMARKS
ROCHESTER      SUNNY     51  36  56 N16       29.96R
RED WING       SUNNY     54  34  47 N7        29.96R
STANTON        SUNNY     54  33  45 N15       29.97R
DODGE CENTER   SUNNY     52  36  54 N14G20    29.96R
WINONA         SUNNY     54  36  50 N10G16    29.93S
AUSTIN         SUNNY     52  36  54 N9G17     29.96R
PRESTON        SUNNY     48  34  58 N14G21    29.94R
$$
ABBREVIATIONS USED IN REMARKS
   TC - TEMPERATURES IN CELSIUS
  WCI - WIND CHILL INDEX
   HX - HEAT INDEX
  VSB - VISIBILITY
$$




USA.gov is the U.S. government's official web portal to all federal, state and local government web resources and services.